Theta_e
335 331 336 334 335 332 329 332 330 334 332 326 334 337 334 331 329 332 333 332 330 328 326 325 325 324 325 328 329 329 331 331 331 333 335 336 337 337 334 333 333 333 332 332 335 337 338 337 336 336 334 333 331 330 329 326 324 325 324 320 318 316 318 322 324 324 325 325 324 323 324 324 323 324 324 324 324 323 322 321 321 321 321 321 321
335 328 335 333 332 333 330 333 331 333 336 331 333 336 335 334 332 332 331 328 327 325 325 325 323 323 324 327 329 329 331 332 331 333 335 336 338 338 335 333 333 333 333 332 334 336 338 337 336 336 334 333 332 330 330 327 326 326 323 320 317 318 319 321 322 324 324 324 323 322 322 322 322 321 322 322 321 320 319 320 320 320 321 321 321
336 329 333 333 332 332 329 332 332 332 336 333 332 335 336 334 331 329 328 327 327 325 325 324 323 323 324 326 329 330 331 330 330 333 336 338 340 339 335 334 333 333 333 333 334 336 338 338 337 336 335 334 332 330 330 328 326 326 323 318 316 320 321 319 320 322 323 323 322 321 321 320 319 318 318 318 317 317 318 319 320 319 320 320 321
338 329 332 334 333 332 329 331 333 333 336 335 332 334 334 331 329 328 327 329 330 327 325 325 324 323 324 325 327 330 331 330 330 333 335 338 339 338 337 336 334 333 333 333 333 336 338 338 337 336 335 334 332 330 330 328 327 326 322 317 318 321 322 320 320 322 323 322 321 320 319 318 317 317 317 317 317 317 318 319 318 317 319 320 320
338 329 332 335 334 333 331 333 336 335 337 337 334 334 334 331 330 330 330 331 330 326 323 324 324 324 324 324 326 330 332 331 329 332 335 336 336 335 337 338 336 333 334 334 334 335 336 337 337 336 336 334 332 331 330 329 327 325 321 318 320 322 322 322 322 322 322 320 320 319 317 317 317 317 317 317 317 317 317 317 317 317 318 318 318
339 330 333 336 335 336 335 337 340 337 338 339 336 335 334 333 332 333 332 329 327 324 323 324 324 325 326 327 330 331 333 333 329 331 334 334 335 334 336 339 338 336 335 336 335 335 335 337 337 336 336 335 332 330 331 329 327 325 320 318 321 322 321 322 322 322 321 319 319 317 316 317 317 317 316 316 316 315 315 316 316 316 316 316 317
339 331 334 336 336 339 339 339 340 339 339 338 338 338 334 332 332 332 331 328 325 325 324 324 326 326 327 331 334 333 333 332 330 331 333 334 335 335 336 339 339 338 339 338 336 336 335 336 337 336 336 335 332 331 331 329 327 324 319 317 320 321 321 322 322 322 320 318 317 316 317 317 317 317 316 315 315 314 314 314 315 315 315 315 316
340 336 338 338 339 341 339 339 339 339 341 339 338 340 336 332 331 330 329 329 328 327 325 324 327 327 327 332 334 333 333 333 332 333 334 335 335 335 336 338 339 341 342 340 338 337 336 336 337 336 336 334 332 331 331 329 327 324 318 317 319 320 321 321 321 321 320 319 318 317 318 318 317 317 316 315 314 314 314 314 314 314 314 315 315
342 340 342 340 339 339 337 338 339 340 343 341 338 336 333 331 330 331 330 329 330 329 327 325 328 331 330 333 334 333 334 334 336 336 336 336 335 335 336 338 340 341 341 340 339 338 337 337 337 336 335 334 332 331 331 329 327 324 318 316 319 320 320 320 321 320 320 319 318 317 317 318 318 316 315 314 314 314 314 313 314 315 315 315 315
342 340 341 340 339 339 338 339 339 341 342 341 340 332 329 332 332 333 333 330 329 327 326 329 332 334 333 335 335 335 336 337 338 339 338 337 336 336 335 336 338 338 339 340 339 338 337 337 337 337 336 334 331 330 331 329 327 324 318 315 318 320 320 320 320 320 319 318 317 317 317 317 316 316 316 315 314 314 314 313 313 315 316 316 315
342 340 339 340 341 340 339 339 340 342 340 339 340 332 328 335 335 335 335 330 328 326 326 331 334 335 336 337 337 337 339 339 340 340 339 338 337 336 336 336 337 337 337 339 339 337 336 336 337 336 336 334 331 329 330 329 327 325 318 316 318 319 319 319 319 319 318 318 317 317 317 316 316 316 316 315 314 314 314 313 314 315 315 315 314
341 341 340 340 341 341 339 339 341 341 337 338 340 332 329 337 338 337 336 330 328 329 328 332 335 335 336 336 337 338 339 340 341 342 340 339 337 336 336 336 337 338 337 337 338 337 336 336 337 336 336 334 331 329 330 328 326 325 319 317 318 318 318 318 317 317 317 316 316 317 317 316 316 316 316 316 314 314 313 313 314 314 315 314 313
340 340 340 340 342 341 339 341 341 338 337 338 337 332 330 338 339 337 337 334 333 333 331 335 337 337 338 338 338 339 340 342 342 342 341 340 337 337 337 336 337 337 336 336 336 337 337 336 337 336 336 334 331 329 330 328 326 324 319 317 318 318 317 317 316 316 315 315 316 317 316 315 315 315 316 315 314 313 313 313 313 314 314 313 312
340 340 340 340 342 342 341 342 340 338 340 338 335 334 335 339 339 338 340 340 338 336 332 336 340 340 341 342 342 341 341 342 343 343 342 341 338 337 337 336 336 337 338 337 336 336 336 336 337 337 336 334 331 330 330 328 327 324 320 317 318 318 317 316 315 315 314 314 315 315 314 313 315 315 315 314 313 313 313 313 313 314 313 312 314
340 339 339 340 341 343 344 341 338 340 341 337 335 337 340 341 339 338 343 343 340 339 335 337 341 340 341 346 347 347 346 345 344 343 343 341 339 336 335 336 335 338 339 338 335 335 335 335 337 337 336 335 331 330 329 328 327 324 319 318 319 318 317 316 315 315 314 314 315 314 313 313 315 315 314 313 313 313 313 313 313 313 312 313 315
340 339 339 340 340 343 345 341 339 341 340 337 337 340 342 341 339 339 342 342 341 341 340 340 341 342 344 347 346 346 349 348 344 343 343 342 340 336 335 336 334 335 338 338 336 336 336 335 336 336 336 335 332 330 329 328 327 323 319 317 318 318 317 316 315 314 314 314 313 313 312 314 314 314 313 313 313 313 313 313 313 313 313 314 315
340 340 339 339 340 343 345 342 339 341 340 338 339 342 344 341 339 341 342 341 341 340 341 342 342 342 344 346 346 348 351 347 343 345 344 342 342 339 334 335 336 335 336 337 337 337 337 336 335 335 335 335 333 331 330 329 327 323 319 317 318 318 316 316 315 314 314 313 313 312 312 313 313 313 312 312 313 313 313 313 313 313 313 314 314
341 340 339 340 341 342 345 344 341 342 342 341 341 342 345 343 341 343 342 342 341 341 343 343 343 344 343 344 346 347 347 345 344 347 346 342 342 342 337 334 337 338 336 337 337 337 337 337 336 336 335 334 333 331 330 329 328 324 320 317 317 317 316 316 315 314 313 313 313 312 312 313 313 313 312 312 313 313 313 313 313 313 314 314 315
341 341 340 339 341 343 346 345 343 344 343 343 343 342 343 343 342 341 341 340 340 340 343 344 343 344 344 344 344 343 343 344 345 346 347 345 343 342 341 337 335 338 338 338 338 337 338 337 336 336 335 334 332 331 331 329 327 325 321 317 317 317 317 316 315 314 313 313 313 313 312 312 313 313 312 312 312 312 312 312 312 313 314 314 314
341 340 340 339 339 344 347 345 343 344 344 344 344 343 342 343 342 341 341 341 341 339 341 344 344 344 343 343 343 343 342 343 343 343 345 347 346 344 343 340 337 336 337 340 339 338 338 337 336 336 335 334 331 329 331 329 327 326 322 318 317 317 317 316 315 314 313 313 313 313 313 312 312 312 312 312 312 312 312 312 312 312 312 313 313
340 340 341 339 340 343 346 346 344 344 343 343 344 343 342 342 342 342 342 343 343 342 341 342 344 344 343 343 342 342 342 342 342 341 343 345 347 347 345 343 342 338 335 335 337 337 338 337 335 336 335 334 331 329 330 329 327 326 322 319 318 317 317 316 315 314 313 313 312 312 312 312 312 312 311 311 311 312 312 312 312 312 312 312 312
340 340 341 341 342 343 346 346 345 345 343 343 344 344 343 342 342 343 343 344 343 343 342 343 343 343 342 342 342 342 343 342 342 341 343 344 345 347 345 342 344 342 335 333 335 337 338 337 335 336 335 335 332 329 330 329 327 326 323 320 318 318 317 317 315 314 313 313 312 311 312 312 313 312 311 311 311 311 312 311 311 312 312 312 312
341 340 341 343 343 343 345 346 346 345 343 343 344 345 344 344 344 344 344 344 343 343 343 343 344 343 342 342 341 342 342 343 342 341 343 345 345 347 344 341 342 341 338 338 338 339 339 337 337 336 335 334 332 329 330 329 327 326 324 321 319 318 318 317 316 315 314 313 313 311 311 311 312 312 312 312 311 311 311 311 311 311 311 311 311
341 341 342 343 343 343 345 346 346 345 343 343 343 344 344 344 345 345 344 344 345 345 344 344 344 344 344 342 341 341 341 341 340 340 342 343 344 346 344 342 342 340 339 340 339 338 338 338 337 336 335 334 332 330 330 329 327 326 325 322 319 318 318 317 316 315 314 314 313 312 310 310 311 312 312 311 311 311 311 310 310 309 310 310 311
342 343 343 344 344 344 345 346 347 345 343 343 343 343 344 344 344 345 345 345 345 345 345 345 345 344 344 343 342 341 341 341 340 340 342 342 343 346 344 342 343 341 340 341 339 338 338 337 336 335 334 333 332 330 330 329 327 326 324 321 319 319 319 318 316 315 314 314 314 313 311 310 310 309 309 310 310 311 310 310 310 309 309 309 310
343 343 344 344 344 344 345 345 346 345 344 343 343 344 344 344 344 345 346 346 345 345 344 345 345 344 344 343 342 342 341 341 341 340 342 342 343 345 345 343 342 340 339 339 338 338 338 337 336 334 333 332 332 331 330 329 327 326 322 319 319 319 318 318 317 316 315 314 314 314 312 311 309 306 305 308 310 310 310 310 309 310 309 309 309
343 344 344 344 344 345 345 345 345 345 345 345 344 344 344 344 344 345 345 345 344 344 343 344 344 344 344 343 342 342 341 341 341 342 342 343 343 343 343 344 344 342 340 338 337 337 337 336 335 334 332 332 332 331 330 328 327 326 321 318 319 319 318 318 317 316 316 315 315 314 313 312 311 308 305 306 309 310 310 310 310 310 310 309 309
344 344 344 344 344 346 345 345 345 345 346 345 344 343 343 343 344 345 344 344 343 342 342 342 343 343 343 343 343 342 342 342 342 343 343 343 344 343 342 342 343 344 343 340 339 337 336 336 335 334 332 332 332 331 330 328 327 326 321 318 319 319 318 318 316 316 316 315 316 315 314 313 312 311 307 305 308 309 310 311 310 310 310 310 310
344 345 344 343 344 346 345 345 346 346 346 345 344 343 342 343 343 344 344 343 342 342 342 342 342 343 343 343 343 343 342 343 343 343 343 343 343 343 342 340 340 342 343 342 340 338 336 336 335 334 332 332 332 331 330 328 327 326 321 318 319 319 319 318 316 317 316 315 316 316 315 313 312 312 308 306 309 310 310 311 311 310 310 311 311
345 345 344 343 344 346 346 346 347 348 346 346 344 342 342 342 343 344 343 342 342 341 342 342 342 343 343 343 344 343 343 343 343 343 342 343 343 343 342 340 339 340 340 340 340 337 335 335 335 333 332 331 331 331 330 328 327 325 321 319 318 318 319 319 317 317 316 316 316 316 315 314 312 311 309 306 309 311 311 310 311 311 311 311 311
345 346 344 344 345 347 347 347 347 346 346 346 344 342 342 343 344 345 343 342 342 341 341 342 342 343 343 344 344 344 344 343 343 343 342 343 343 342 341 340 338 338 337 338 339 337 335 335 334 333 332 331 330 331 329 329 328 325 323 322 320 318 318 319 318 317 317 317 315 315 315 313 312 311 309 307 308 310 311 310 309 310 311 312 311
345 347 346 344 346 347 347 347 346 346 346 346 345 343 344 345 345 345 344 343 343 342 341 342 342 343 344 344 344 344 344 343 343 342 342 342 343 341 340 339 338 338 336 336 338 337 335 335 334 333 332 331 330 330 330 329 328 325 324 325 324 321 318 318 318 317 318 318 316 315 314 312 311 312 310 308 308 309 310 308 308 309 310 311 310
346 346 346 346 346 346 346 345 344 345 347 346 345 345 345 346 345 345 344 343 342 342 342 342 342 343 344 344 344 344 344 343 343 342 342 342 342 340 339 338 338 338 337 336 336 337 335 334 334 333 332 331 331 330 329 329 328 326 325 326 326 323 319 316 317 318 318 318 317 315 314 311 311 312 311 310 309 309 308 307 306 307 309 309 309
344 345 346 346 345 345 344 343 344 346 347 346 346 345 346 347 346 345 344 343 342 341 341 342 342 343 344 344 344 344 343 343 343 343 343 343 341 340 339 337 337 336 336 335 335 336 336 334 333 332 331 331 331 331 330 329 328 326 325 326 326 325 322 317 316 318 318 318 316 314 311 310 311 312 311 310 311 311 310 308 306 305 305 305 305
342 345 347 346 345 344 343 344 346 346 347 347 346 346 346 347 346 345 344 343 343 342 341 342 341 342 343 343 344 343 343 343 343 343 342 342 341 340 339 337 336 336 335 335 334 335 336 334 333 332 331 331 331 331 330 330 328 326 325 326 325 324 322 318 315 316 316 316 313 310 308 309 310 312 311 311 312 312 312 311 308 305 304 303 303
340 343 346 346 344 345 344 346 347 347 347 347 347 346 346 346 345 345 344 343 343 342 341 341 341 341 342 343 343 343 343 342 343 343 342 341 340 339 338 337 335 335 335 334 335 334 335 335 333 332 332 332 331 331 330 330 329 326 326 325 324 323 322 320 317 315 313 313 311 309 309 310 309 310 311 311 312 312 312 312 310 308 307 306 308
340 340 344 346 345 345 345 346 347 347 348 348 347 346 346 346 345 345 344 344 343 342 341 341 340 340 341 342 343 343 343 343 343 343 342 341 340 339 338 336 335 334 334 334 335 334 334 335 334 332 332 331 331 330 330 330 328 327 326 325 324 323 322 320 319 317 314 311 309 310 310 309 308 308 310 311 312 312 312 311 311 310 309 307 309
341 339 340 345 346 345 345 346 346 348 348 348 347 346 346 345 345 345 344 343 343 342 341 341 340 340 341 342 343 343 343 343 342 343 342 341 340 338 337 336 335 334 334 334 333 333 334 335 333 331 332 331 330 329 329 329 329 327 326 325 324 323 322 320 319 319 316 311 309 310 310 310 309 308 309 310 311 311 311 310 310 311 310 308 307
341 339 338 343 346 345 345 346 347 348 348 348 347 346 346 345 345 345 345 344 343 342 341 340 340 340 340 341 343 343 343 343 342 343 342 341 340 338 337 336 334 334 334 334 333 333 334 334 332 331 331 330 329 329 328 329 329 328 327 326 325 324 322 320 319 319 317 312 309 310 310 310 310 309 308 309 309 309 309 308 308 309 310 308 307
340 339 338 342 346 346 345 346 347 348 347 347 347 346 346 345 345 345 345 344 343 342 341 341 340 340 340 341 342 343 343 342 342 342 342 340 340 338 336 335 334 333 334 334 334 334 334 333 332 330 330 329 329 328 328 328 328 328 327 326 325 325 323 320 319 319 317 312 308 308 309 310 310 309 309 309 308 308 308 307 307 307 309 309 307
340 340 338 340 344 346 346 346 347 348 347 346 346 346 345 345 345 345 346 345 343 341 341 341 341 341 341 342 342 342 342 342 342 342 341 340 339 338 336 335 334 334 334 334 334 334 334 334 332 330 330 329 328 328 327 327 328 327 327 326 325 324 322 319 319 319 317 313 308 307 308 309 309 309 309 309 309 309 308 308 308 307 306 307 307
341 340 337 335 338 342 345 347 346 347 347 346 345 346 345 345 345 345 345 345 343 342 342 341 341 341 341 341 342 342 342 342 341 341 341 340 339 337 336 335 334 334 333 333 333 334 334 334 332 330 329 329 329 328 327 327 327 326 326 326 324 323 322 319 318 318 317 315 310 307 307 307 309 309 309 309 309 309 308 308 308 306 304 305 306
338 339 336 335 336 338 341 346 347 347 347 346 346 345 345 345 345 345 345 344 343 342 342 342 342 342 341 341 342 342 341 341 341 340 340 339 338 336 335 334 333 333 333 332 333 333 333 333 333 331 330 330 329 328 327 326 326 325 325 325 324 322 321 319 318 317 317 316 312 310 310 308 309 311 311 311 310 310 309 308 308 307 303 303 305
336 337 335 336 338 338 337 343 347 347 346 346 345 345 345 345 345 345 344 344 343 342 342 342 342 342 341 341 342 341 341 340 340 339 338 337 336 336 334 332 332 333 332 332 333 333 333 333 333 332 331 331 329 328 327 326 325 325 325 324 323 322 320 319 319 318 317 316 314 314 314 312 311 312 313 313 312 312 311 310 309 308 303 302 303
336 337 336 336 339 338 336 341 345 346 346 346 345 344 344 344 345 344 344 344 343 342 342 342 343 342 342 342 341 340 340 339 339 338 338 336 335 334 332 330 331 332 332 332 332 332 332 332 332 332 332 331 330 328 327 326 326 326 325 324 323 322 321 320 319 318 318 317 316 316 316 314 314 314 314 312 312 311 311 309 309 307 304 301 301
337 336 335 336 338 338 337 342 345 346 346 345 345 344 344 343 344 344 344 343 343 342 342 342 342 342 342 342 341 340 339 339 338 337 337 335 334 332 330 328 328 329 329 330 331 331 330 329 330 331 331 330 330 329 328 327 326 326 325 324 324 323 321 320 320 320 319 318 318 317 314 312 313 314 312 310 310 309 308 308 307 306 305 302 300
338 337 337 336 337 337 339 344 346 346 346 345 345 345 344 344 343 343 343 343 342 342 342 342 342 342 341 342 342 340 339 338 336 336 336 334 333 331 328 326 326 326 326 327 328 329 328 327 328 330 329 329 330 329 328 328 327 326 326 325 325 324 323 321 321 321 320 319 319 318 312 309 310 311 309 308 308 308 307 307 307 307 306 303 300
338 338 339 338 337 337 341 345 346 346 346 345 345 344 344 343 343 342 342 343 342 342 342 342 342 342 341 342 342 341 340 338 336 336 335 333 331 329 327 326 325 325 324 325 326 326 326 326 327 329 328 327 328 328 328 328 327 326 326 325 325 324 322 320 319 319 320 319 319 318 312 307 307 309 308 307 307 308 308 308 308 308 307 304 302
337 337 338 338 339 341 344 345 345 346 346 345 344 344 343 343 343 342 342 343 342 342 342 342 342 341 340 341 341 340 340 338 337 335 333 332 330 327 326 326 325 324 323 323 323 323 324 325 325 326 327 326 327 327 326 326 326 325 325 325 325 323 321 319 317 316 318 318 318 318 314 308 307 308 308 307 306 306 306 306 306 306 306 305 304
338 337 337 338 340 343 345 345 345 345 346 345 344 344 343 343 342 342 342 342 342 342 342 342 341 341 340 341 341 341 339 338 337 335 332 330 329 327 327 326 324 323 323 322 320 319 320 321 322 322 323 323 325 325 325 325 325 325 325 325 324 323 321 319 316 314 315 316 316 317 314 309 307 308 307 305 304 303 304 304 303 304 304 305 305
338 337 338 340 341 343 345 346 345 345 346 345 344 344 344 343 342 342 342 342 342 342 342 341 341 340 340 341 341 340 339 338 336 334 331 329 328 328 327 325 323 322 322 320 317 316 316 317 317 317 316 317 319 321 322 324 324 324 324 324 324 324 322 319 316 314 313 313 313 314 312 308 307 307 306 303 301 301 301 302 301 302 303 303 304
Wind_Speed
26 24 21 20 18 16 17 15 15 14 14 13 13 14 13 11 13 12 10 9 9 7 5 6 6 5 5 5 3 2 2 2 2 2 4 4 3 5 4 3 4 4 4 5 5 6 5 5 5 3 3 5 6 7 6 6 7 9 11 11 11 10 8 7 7 6 6 7 7 8 8 8 8 8 8 7 7 6 6 6 5 5 5 5 6
26 26 22 22 20 18 18 17 16 16 17 15 12 13 12 12 11 9 9 9 9 8 6 5 7 8 7 5 2 1 1 3 3 1 4 3 3 5 4 1 2 2 3 4 5 6 5 5 5 4 4 5 6 6 4 5 6 8 10 11 12 11 8 6 7 7 6 7 8 8 8 8 8 8 8 7 6 6 6 6 6 6 6 6 7
27 27 24 22 22 20 19 19 17 17 17 16 14 12 12 12 10 8 11 11 7 4 3 4 8 11 11 7 2 0 2 4 3 1 4 5 4 4 2 1 1 1 2 4 4 6 6 6 5 5 5 5 5 6 4 5 7 8 9 11 12 11 8 7 8 6 4 7 8 8 9 8 9 9 8 8 8 8 8 8 8 8 8 8 9
27 27 25 23 22 21 21 19 18 17 14 14 15 12 10 12 10 9 11 11 7 4 3 5 9 12 13 11 6 3 2 4 5 0 3 4 4 1 1 1 1 2 3 3 4 5 6 6 5 5 6 5 5 5 2 4 6 8 10 11 12 10 9 9 9 6 6 8 8 9 9 9 10 11 10 10 10 10 10 10 10 10 11 12 12
27 28 26 24 22 21 22 19 17 17 13 13 15 12 9 10 11 9 9 9 8 5 5 8 10 10 10 9 7 7 3 4 8 2 2 2 3 2 2 3 2 3 3 3 3 5 6 6 6 6 6 5 5 5 2 3 5 8 9 10 11 10 10 9 9 8 8 9 9 10 10 10 11 11 11 10 11 11 11 11 11 11 11 13 12
28 29 26 25 23 22 22 18 16 16 15 14 13 13 13 10 9 10 8 9 9 8 10 11 10 11 10 7 3 7 6 4 8 4 2 1 3 3 4 4 5 5 4 4 5 6 6 7 7 7 7 6 6 5 3 2 4 7 9 9 10 10 10 9 9 9 9 10 10 11 10 10 11 11 11 10 11 11 10 10 11 10 10 10 11
28 29 26 26 24 23 22 19 17 16 15 17 13 12 15 12 9 10 11 11 11 11 13 13 11 12 10 5 1 5 7 5 8 6 4 3 2 3 5 6 6 6 5 6 7 7 6 7 9 8 7 6 7 5 4 2 4 6 8 9 10 10 9 9 8 9 10 11 11 11 11 10 10 12 12 11 11 11 11 11 11 11 11 11 11
28 29 26 26 24 23 23 19 19 18 16 19 17 14 14 13 12 11 12 12 11 12 14 14 11 11 9 5 2 4 6 5 7 6 4 4 2 2 4 7 8 8 8 8 7 8 8 8 9 8 6 7 8 7 5 3 3 6 8 9 10 10 9 9 8 9 10 11 12 12 11 10 11 12 12 12 12 11 12 12 12 12 12 12 12
27 28 25 25 24 23 23 21 20 20 17 17 19 18 14 13 13 12 12 12 12 13 14 13 11 8 7 6 6 6 6 5 5 6 4 5 3 2 3 7 9 9 10 10 9 8 8 8 8 8 7 8 10 8 6 4 2 5 8 9 10 10 9 9 9 10 11 11 10 10 10 10 11 12 12 12 12 12 12 12 13 13 13 13 14
26 28 26 23 24 23 23 22 21 21 19 16 16 18 16 15 15 13 13 12 12 15 16 9 5 5 6 5 6 6 6 6 6 5 4 3 3 3 3 5 8 9 10 11 10 8 8 9 9 9 8 9 11 9 7 5 3 4 7 9 10 10 9 9 10 11 11 10 9 8 9 10 10 11 11 12 12 12 12 12 13 14 14 15 15
26 29 28 24 23 24 23 22 22 21 20 18 15 17 17 16 16 15 15 15 13 15 15 11 4 4 5 5 6 6 6 8 7 6 5 3 4 5 4 4 6 8 9 11 12 10 8 9 10 11 9 10 12 10 9 7 5 4 6 9 10 10 9 9 9 9 9 9 8 8 9 9 9 10 10 12 12 12 12 12 13 13 14 15 15
27 28 29 25 22 23 24 23 23 21 21 20 17 18 18 17 17 16 15 16 15 15 13 10 8 7 7 8 10 10 10 10 8 7 5 4 6 7 5 4 4 6 8 10 11 11 10 10 10 10 10 11 13 11 10 9 6 4 6 9 9 9 9 8 8 7 8 9 8 9 10 9 9 9 10 12 12 11 11 12 12 12 13 14 14
28 28 28 26 22 23 24 24 23 22 22 22 19 18 19 18 17 16 15 15 14 15 13 10 8 7 8 10 12 13 14 12 9 7 6 5 6 6 6 5 4 7 6 7 9 11 11 11 10 10 10 12 14 12 11 10 8 5 6 8 9 9 9 9 8 7 7 8 8 9 10 9 9 10 11 11 11 10 11 11 11 12 13 13 14
28 28 28 27 24 23 23 23 23 22 22 22 20 18 20 19 17 16 15 15 14 14 14 10 7 7 8 6 8 11 14 13 10 7 6 7 9 7 6 6 4 7 5 6 9 10 11 12 11 11 11 13 16 15 14 12 9 7 6 8 9 10 9 9 9 8 8 9 9 9 9 9 10 10 10 11 10 10 11 11 11 12 13 14 14
28 27 27 27 26 24 22 23 24 23 22 22 21 19 20 20 18 18 16 14 14 13 14 13 9 8 7 4 2 4 6 8 8 9 9 8 11 11 6 5 4 4 4 5 8 8 8 11 13 12 11 13 16 17 16 14 11 9 7 9 11 10 10 10 10 9 10 10 9 9 9 10 10 9 10 10 10 11 12 11 11 12 13 14 14
27 27 27 26 27 25 22 23 24 24 23 23 22 20 20 21 19 19 17 15 15 14 15 14 11 7 3 2 3 2 1 4 7 10 12 10 11 15 13 8 5 5 6 7 8 7 8 12 13 13 12 13 16 17 16 15 13 11 9 10 11 11 10 11 10 11 11 11 10 9 10 11 10 10 10 11 11 12 12 12 12 13 14 14 14
27 26 27 25 26 25 22 23 24 23 23 23 23 21 20 21 20 20 19 17 15 15 16 16 14 12 7 3 1 1 1 2 4 7 12 12 9 14 19 17 10 5 6 8 9 8 9 12 12 12 13 15 17 17 17 16 15 13 11 10 12 12 11 11 11 12 12 11 11 11 10 10 10 11 11 12 12 12 12 12 13 13 14 14 14
28 25 25 24 26 25 22 23 24 23 23 23 23 22 20 21 21 21 21 19 15 11 13 18 15 13 12 8 5 3 1 1 1 2 9 11 8 10 18 24 19 7 5 7 10 10 10 11 11 11 14 17 18 17 18 18 17 15 12 11 13 12 12 13 12 12 12 12 12 11 11 10 11 12 12 12 13 12 12 12 13 13 14 14 15
29 26 24 24 27 26 21 23 24 23 24 23 23 24 22 20 20 21 20 18 17 12 8 14 16 12 13 11 9 7 5 4 2 1 2 5 7 9 11 18 22 14 6 7 9 10 11 11 11 12 14 16 18 17 18 21 19 15 12 11 13 13 14 13 12 12 12 12 12 12 11 11 11 12 12 12 13 12 12 12 13 13 13 14 15
28 27 24 24 27 26 22 23 24 23 24 24 23 23 23 21 20 21 19 17 18 16 11 11 14 14 13 12 11 9 8 7 7 5 2 1 4 6 7 9 15 15 10 6 6 9 12 11 10 12 14 15 16 16 18 22 19 14 13 13 13 14 14 13 13 12 12 12 12 12 12 11 11 12 11 12 13 12 12 12 13 13 13 13 13
28 27 25 24 26 26 23 24 25 25 26 25 23 23 23 21 20 20 20 18 17 16 15 13 11 11 12 13 12 10 8 9 10 9 5 2 2 2 4 6 7 8 7 6 7 10 11 10 10 12 12 12 15 15 18 22 19 16 16 14 14 15 15 14 13 13 13 12 12 12 12 12 12 12 12 12 12 12 12 12 12 13 13 13 13
29 29 27 26 26 26 25 25 25 25 26 26 24 23 22 21 20 19 19 18 16 15 14 14 11 9 10 11 11 10 8 7 9 10 7 5 4 2 1 1 2 4 5 5 10 12 11 10 11 12 11 10 13 16 19 23 21 19 19 15 14 16 16 15 15 14 14 13 13 13 13 13 13 12 12 12 12 12 12 12 12 12 13 13 13
31 31 29 28 27 27 26 26 26 26 26 27 26 24 23 21 19 19 18 16 16 16 14 14 12 11 10 10 9 10 8 6 7 8 6 4 3 3 1 2 2 4 4 5 11 12 11 11 12 12 11 10 13 17 20 24 24 21 20 17 14 16 17 16 16 15 14 14 13 13 13 13 12 12 12 12 12 12 12 12 12 12 12 12 13
30 31 30 29 28 29 28 27 27 27 28 27 26 24 23 21 19 18 19 17 16 16 15 14 14 12 12 11 10 10 9 9 9 5 4 3 2 2 3 3 2 3 6 8 10 10 10 11 12 12 11 10 14 18 20 24 24 22 21 18 15 17 18 17 16 15 15 14 14 13 13 13 13 12 13 14 13 12 13 12 12 12 12 12 12
30 30 31 31 30 30 30 30 30 30 29 28 27 25 23 22 21 19 19 19 17 16 15 14 14 13 12 11 12 11 10 11 10 6 4 3 1 1 2 2 1 2 9 13 12 9 10 12 13 13 11 10 13 17 20 22 23 22 21 19 16 17 19 18 16 16 15 14 14 13 13 12 13 12 13 15 15 13 12 12 12 12 12 12 12
32 32 33 33 31 32 32 31 30 31 30 29 27 25 24 22 22 20 19 19 18 17 16 14 14 13 12 12 12 12 11 11 10 7 5 3 2 1 1 3 3 3 4 13 16 11 9 13 14 12 11 11 12 15 21 23 22 21 19 19 18 18 19 18 17 16 14 14 15 14 12 10 10 10 11 14 15 14 13 12 12 11 11 12 11
34 33 34 35 34 32 32 30 29 30 31 30 27 26 25 23 21 20 19 18 18 17 16 15 14 13 13 13 12 12 12 10 8 7 5 4 3 1 0 1 2 3 3 6 13 12 13 15 13 11 12 12 12 15 22 25 23 21 19 19 19 18 19 18 17 16 13 13 15 14 11 9 8 9 10 12 14 14 13 12 11 11 11 11 11
34 34 35 37 35 33 32 30 29 30 31 30 28 27 26 24 21 21 20 19 18 17 16 14 14 14 13 13 13 12 10 9 8 7 6 5 3 2 2 1 1 1 2 3 6 10 16 18 13 11 12 13 13 15 22 26 24 22 20 20 19 19 20 18 17 17 14 13 16 15 12 9 7 8 8 11 14 14 13 12 11 11 11 11 11
33 34 36 38 36 33 33 31 29 30 31 31 29 27 26 25 22 21 21 20 18 18 17 15 14 14 14 14 14 13 11 10 9 8 6 5 4 4 3 2 2 1 1 1 1 6 14 17 14 12 12 13 13 14 21 26 25 23 22 21 19 19 21 18 16 17 15 14 15 16 14 10 8 8 8 11 14 13 13 12 10 11 11 11 12
34 34 36 38 36 34 33 32 31 30 30 30 29 27 26 26 23 21 22 21 19 17 16 15 14 14 15 15 15 13 11 10 10 9 8 6 5 5 4 4 4 2 2 1 0 4 11 15 15 15 14 12 13 16 21 24 24 24 22 20 19 19 20 19 16 17 16 15 15 16 16 11 9 9 9 13 15 14 13 11 9 11 12 13 14
33 33 35 37 36 35 33 33 32 31 30 29 29 27 26 27 25 21 21 21 19 17 15 14 14 14 15 15 14 13 12 11 10 9 8 7 6 5 4 4 5 4 3 2 0 3 9 14 15 17 15 11 13 16 19 20 22 24 20 18 18 17 19 20 17 18 18 16 15 16 15 10 8 10 11 13 14 15 14 10 8 9 12 15 14
31 31 34 35 36 36 35 34 33 31 30 28 28 28 27 27 26 23 22 22 20 17 16 15 15 15 15 15 14 14 13 12 11 10 9 9 8 5 4 5 5 6 4 2 1 3 9 14 16 17 15 13 13 16 18 19 20 22 19 18 19 17 19 20 19 18 18 17 17 15 13 10 9 11 12 13 14 15 14 11 9 10 12 14 13
31 30 32 34 36 37 35 34 33 31 30 29 29 28 27 27 26 24 23 22 21 19 17 16 16 16 16 15 15 14 14 13 12 12 11 10 8 6 5 5 5 6 5 4 3 2 9 13 16 17 16 15 15 15 18 20 21 22 19 18 19 18 18 20 20 19 19 18 17 15 13 11 10 13 13 13 15 14 14 13 13 13 12 11 11
28 31 32 33 35 36 35 34 33 31 30 30 29 29 28 27 27 26 24 22 22 20 18 18 18 17 17 16 15 15 14 14 13 13 12 11 10 8 8 7 6 5 5 5 4 2 7 13 16 17 15 15 15 16 18 20 23 24 20 18 20 20 18 19 20 20 19 18 17 15 15 14 14 15 14 14 15 15 14 14 13 14 13 11 10
26 30 32 33 34 35 34 33 32 31 30 30 30 30 29 28 27 26 25 23 23 21 20 19 19 19 19 17 16 16 16 16 14 13 13 12 11 11 10 9 7 6 5 5 4 3 5 14 17 17 15 14 14 16 17 18 22 25 21 18 21 22 20 19 21 21 20 18 16 15 15 15 16 18 16 15 17 17 16 15 13 13 13 10 9
27 29 31 32 32 33 33 32 31 32 31 30 31 30 29 29 27 26 25 24 23 22 21 20 20 20 20 19 17 16 17 17 16 15 14 13 12 11 10 9 8 7 6 6 6 4 2 11 15 15 17 15 13 15 17 17 19 22 21 19 21 22 20 18 19 20 20 18 16 16 17 15 16 18 17 16 18 18 16 15 15 14 12 10 7
30 30 29 30 32 32 33 32 31 32 31 31 32 31 29 29 27 26 26 24 23 22 22 22 20 20 20 21 19 17 18 18 17 16 15 15 13 11 10 9 7 8 9 7 7 6 4 8 13 14 15 15 13 13 16 17 17 17 18 19 21 21 18 17 18 18 18 18 17 17 17 15 15 16 17 17 18 17 15 13 14 16 15 12 9
33 31 30 30 32 33 33 33 32 32 32 32 32 31 30 29 27 26 26 25 24 23 23 22 21 20 20 20 19 19 19 19 19 18 17 16 15 12 11 9 7 9 11 8 8 7 5 10 15 15 15 15 15 13 13 16 18 17 18 18 19 20 19 19 18 16 16 19 19 19 18 16 15 15 16 16 16 16 14 12 12 16 17 15 12
36 33 34 33 33 33 33 33 32 32 32 32 32 31 30 29 28 26 25 25 24 23 23 23 22 21 21 20 19 19 19 20 20 18 17 17 17 14 12 10 9 9 11 10 9 8 8 13 16 15 14 14 14 14 12 14 16 17 18 18 18 18 18 19 20 17 17 20 20 20 19 16 15 15 14 15 15 14 14 12 11 14 16 16 13
35 35 37 37 35 34 33 33 33 33 33 32 32 31 30 29 28 26 25 25 24 24 23 23 22 21 21 20 19 19 19 19 19 18 18 18 18 15 12 11 10 9 10 10 11 10 10 15 16 15 15 14 13 13 13 13 14 15 18 20 20 20 19 19 20 19 20 23 22 21 20 18 16 16 15 15 15 14 13 11 10 12 14 15 14
33 34 36 36 33 33 34 34 32 33 34 33 33 33 30 29 27 26 25 24 24 24 22 22 22 20 20 20 19 19 18 18 18 18 18 19 18 15 14 13 13 12 11 10 12 13 12 14 16 16 16 15 14 16 16 17 18 17 17 18 17 17 17 15 15 17 21 23 23 22 22 21 19 18 17 17 17 16 15 13 12 11 12 14 13
30 31 29 29 27 27 30 35 34 32 34 33 32 32 31 29 28 27 26 24 25 24 22 22 21 20 19 19 19 20 19 18 18 18 18 19 17 16 15 15 14 15 14 12 12 14 13 13 17 17 16 14 16 19 20 20 20 18 17 15 11 11 14 13 11 13 18 21 22 21 22 22 20 19 18 18 18 18 17 17 15 12 12 14 14
24 25 24 25 28 27 26 30 34 32 33 32 31 31 30 29 28 27 26 24 25 25 22 21 20 19 19 19 20 20 19 18 19 18 18 19 18 17 16 15 14 15 15 14 12 13 13 13 16 19 17 16 18 20 20 19 18 17 17 17 13 12 15 14 10 11 15 20 20 19 19 21 20 17 16 16 17 18 19 19 17 14 12 14 15
25 26 24 27 31 29 27 26 31 31 31 31 30 30 29 27 27 27 26 23 23 24 23 21 20 20 18 17 18 20 18 18 19 19 19 19 18 17 14 12 14 14 15 15 12 11 12 12 14 19 18 16 20 22 21 19 19 18 18 19 17 16 17 17 14 13 16 20 20 17 16 18 19 18 17 16 17 18 20 20 18 16 15 15 16
28 29 27 29 30 30 30 28 28 29 29 29 29 29 28 27 26 27 26 24 23 23 22 21 20 20 19 17 18 19 18 18 19 19 19 19 17 16 13 11 14 14 14 15 12 9 8 7 9 16 17 16 21 23 22 21 20 20 19 20 20 19 19 20 19 17 17 21 22 19 15 16 19 20 18 17 16 17 18 18 17 17 16 16 16
26 26 28 29 29 30 33 29 27 26 27 28 28 28 28 28 27 25 24 23 23 22 22 21 21 21 20 18 19 20 19 19 20 20 19 19 17 15 12 11 13 13 13 14 13 10 8 4 4 9 11 13 18 22 21 21 21 21 21 22 22 20 20 19 17 16 18 25 28 21 13 11 16 18 16 14 13 14 14 14 14 15 15 15 17
24 24 26 26 28 33 33 28 25 24 25 27 27 27 28 29 29 27 24 22 22 21 21 22 22 22 21 19 20 22 21 20 20 20 19 19 17 14 11 10 11 12 12 13 13 12 9 5 3 6 8 9 14 19 20 20 20 19 19 19 18 17 17 15 10 10 15 24 29 22 11 9 13 15 13 11 10 9 9 8 9 11 13 15 16
23 24 24 25 32 37 31 24 23 24 25 26 26 26 28 30 31 29 26 22 21 20 19 19 20 21 21 20 21 23 23 21 20 19 19 20 18 14 13 12 12 12 11 11 12 12 10 7 6 7 8 10 13 17 19 18 17 16 15 15 15 15 16 14 10 10 13 17 22 20 12 10 11 12 11 10 7 6 6 7 9 11 13 14 15
18 20 24 30 35 34 28 23 23 23 25 27 27 27 29 30 31 30 27 23 20 18 18 18 18 19 19 19 20 22 22 22 20 18 19 20 17 14 14 14 14 13 11 9 10 11 11 9 8 8 8 9 12 15 16 16 15 14 14 17 19 19 18 15 11 11 14 15 17 17 13 12 12 12 10 8 5 4 5 6 7 9 12 14 15
15 19 28 34 32 26 23 23 22 20 23 28 28 28 29 30 30 30 27 24 20 19 18 18 19 20 19 18 20 22 22 22 20 19 20 19 17 15 15 15 15 14 12 10 9 10 10 10 9 9 8 8 10 12 13 14 15 16 14 15 19 22 20 16 14 14 13 12 13 13 11 11 13 13 11 7 4 3 3 3 4 5 7 10 12
19 25 32 31 25 20 20 22 22 19 21 25 28 29 30 30 31 30 27 24 21 20 20 20 20 22 21 20 22 23 23 22 20 20 22 19 16 16 17 17 16 15 13 11 10 10 11 10 9 9 8 8 9 10 11 12 14 15 12 10 17 22 20 19 20 16 9 8 11 11 11 12 14 14 13 8 4 2 3 3 3 3 4 5 7
Wind_Direction
175 169 168 168 172 176 178 187 188 193 210 201 194 212 216 225 236 231 233 248 261 264 257 279 286 260 261 272 273 318 30 33 27 122 101 83 118 116 90 77 86 92 96 105 117 113 117 123 124 123 85 91 90 69 64 61 48 40 35 35 28 28 55 75 74 79 84 80 74 72 74 73 72 72 70 77 86 84 75 64 58 61 64 65 59
176 172 170 169 171 174 178 187 191 197 208 203 199 213 214 223 236 230 231 239 252 265 258 262 281 272 259 258 258 295 325 35 22 146 124 109 143 120 94 88 85 94 116 115 120 122 132 136 138 142 106 104 98 85 76 55 44 40 38 33 31 41 60 86 85 75 79 81 75 72 72 69 68 70 70 72 73 70 70 65 65 67 67 70 67
175 173 172 171 170 174 180 188 195 200 205 198 198 214 213 220 231 224 237 250 263 282 282 276 287 288 287 280 239 81 29 26 12 87 116 115 136 123 99 120 100 135 135 124 127 132 147 151 151 150 131 122 101 98 85 46 41 41 40 36 43 55 58 78 93 85 81 78 73 72 70 70 70 69 68 66 66 69 75 77 76 75 74 78 81
174 175 174 171 171 174 181 190 196 201 201 187 196 216 210 213 225 224 240 264 289 329 335 300 295 301 311 322 339 31 45 351 348 122 156 138 138 133 193 187 152 161 152 134 142 152 161 162 164 160 149 143 110 106 89 35 40 39 41 45 56 66 64 79 98 100 89 76 72 73 70 70 72 71 68 66 68 70 73 76 72 73 78 81 81
173 175 174 172 172 173 181 190 193 197 196 183 196 214 206 209 221 226 242 263 275 291 298 287 285 285 290 298 330 16 44 342 347 2 165 156 165 263 259 221 208 185 178 161 166 177 177 173 175 168 163 159 121 122 139 43 36 36 45 58 67 73 75 88 106 103 86 78 78 75 71 73 74 74 71 66 67 69 68 71 71 74 79 80 79
173 175 173 171 174 174 179 186 187 193 196 189 196 204 202 209 219 225 237 251 258 266 266 262 267 272 278 273 291 6 22 352 334 329 315 289 171 239 248 215 225 218 199 184 184 200 195 180 182 173 170 168 135 142 167 85 40 39 53 68 76 79 85 92 102 100 89 86 81 72 69 74 78 79 75 68 66 67 67 71 74 75 77 80 81
172 175 175 173 175 175 177 182 186 190 195 194 195 192 199 209 216 225 232 236 240 251 257 253 260 273 297 345 48 339 348 331 319 319 299 272 193 244 236 199 212 222 215 207 201 213 211 191 188 183 182 176 150 160 175 116 50 46 60 77 83 85 92 96 99 101 95 87 78 72 74 78 83 82 78 72 69 70 72 74 75 77 78 81 84
172 174 171 171 173 173 177 182 186 188 191 195 195 188 196 212 217 226 235 239 236 239 249 241 244 265 279 324 336 314 325 318 316 325 322 299 271 242 227 202 203 213 217 224 229 227 217 205 200 193 194 179 158 168 176 141 63 54 67 82 90 89 94 99 98 97 93 86 79 78 83 85 85 84 77 73 73 75 77 77 76 78 81 82 84
174 173 165 169 175 175 178 182 185 188 188 194 201 198 201 216 217 222 231 245 249 251 260 240 220 244 256 277 291 281 288 296 306 307 311 311 276 209 227 207 202 215 224 231 243 238 220 212 208 201 197 176 163 172 174 154 89 65 74 88 96 94 98 103 101 99 96 91 87 87 88 85 86 87 80 74 75 75 78 80 79 80 84 86 86
175 175 168 169 176 177 179 181 183 186 186 191 202 202 206 216 215 215 220 231 246 258 279 275 211 232 247 254 274 267 272 280 287 291 285 281 257 242 241 210 206 218 231 237 239 240 230 214 206 204 195 174 173 181 175 164 138 79 78 95 104 104 107 109 108 106 101 95 92 96 93 85 87 88 80 78 80 78 81 86 85 82 85 89 87
176 176 173 170 173 177 180 183 184 185 187 191 198 197 202 212 208 210 218 222 233 247 271 290 268 257 254 248 265 264 270 272 269 276 275 254 256 261 235 208 216 217 226 238 238 242 238 221 207 202 193 179 182 187 180 174 162 107 86 101 112 117 116 115 114 109 102 96 96 103 99 91 92 89 82 85 86 82 84 89 89 87 88 92 90
179 177 175 171 171 176 180 184 185 185 187 191 196 195 200 207 203 207 218 220 227 235 250 269 260 261 269 261 263 264 265 266 263 258 250 228 239 257 252 224 208 202 214 228 237 244 233 224 215 202 193 183 187 189 182 182 177 138 101 111 123 128 128 125 124 121 110 102 101 106 102 97 93 89 89 92 88 85 89 91 91 92 92 94 94
181 179 177 174 171 174 179 182 184 188 190 193 194 194 200 203 200 205 214 215 221 227 235 246 240 251 271 260 255 259 259 254 249 244 231 195 192 234 269 257 190 167 196 232 235 234 227 223 211 199 196 187 187 187 183 188 184 153 114 118 129 132 134 130 130 132 126 120 113 106 102 99 95 94 95 90 86 92 98 96 94 95 95 97 100
182 179 179 177 173 172 179 183 183 187 192 194 192 194 199 199 198 203 208 213 218 223 227 228 214 227 251 254 255 260 254 242 231 223 220 190 169 189 251 266 219 169 198 260 235 215 222 225 211 199 199 194 190 185 186 192 184 160 131 122 128 132 133 130 128 127 128 133 125 109 103 104 105 102 94 86 90 100 102 101 98 98 98 99 101
183 178 179 180 175 171 179 183 181 184 189 189 189 194 197 195 198 201 203 210 218 222 220 215 210 223 239 236 243 266 242 218 215 212 209 194 165 160 188 244 257 210 203 245 232 216 219 220 213 207 207 200 192 188 189 193 185 166 142 130 134 135 131 126 126 124 126 133 128 114 110 110 109 104 93 91 100 104 103 102 100 101 103 105 103
187 183 180 182 179 174 178 181 181 184 186 184 186 192 194 194 197 200 202 206 213 219 214 210 214 221 246 245 209 235 189 176 216 221 206 201 172 150 153 174 206 226 204 201 219 239 235 215 210 213 212 200 191 192 192 190 184 171 148 139 141 139 133 128 127 126 127 130 126 120 118 113 105 103 101 102 105 105 103 103 102 103 105 106 104
188 186 181 183 183 180 182 183 183 185 185 184 186 190 193 194 196 199 203 206 208 211 206 206 214 221 232 271 257 219 168 168 230 226 197 196 186 157 152 152 157 203 218 209 219 234 233 214 206 210 208 199 194 194 190 187 183 171 155 147 147 145 140 133 130 128 128 129 127 124 123 117 106 104 107 107 108 107 106 106 105 106 106 105 106
186 185 181 184 187 184 185 186 185 185 185 185 188 192 193 194 197 201 206 210 217 219 203 199 205 218 224 239 262 250 275 290 287 226 189 190 195 175 157 147 147 174 228 229 224 219 224 218 206 203 203 202 199 193 192 191 185 176 165 153 150 148 143 138 134 132 131 131 128 124 124 119 111 108 109 110 110 110 109 108 108 108 109 107 107
185 185 184 186 190 188 187 188 187 187 185 186 191 194 195 196 200 204 207 212 222 235 219 190 191 209 223 230 245 246 255 273 280 306 189 194 196 191 179 153 147 158 196 231 225 210 215 216 206 205 206 201 193 192 196 191 184 182 175 158 152 149 146 143 139 135 135 133 129 126 123 119 114 110 110 112 112 112 111 110 111 112 111 110 109
184 185 186 188 190 188 188 189 189 190 189 190 193 195 196 199 202 203 205 210 213 222 225 198 190 202 215 221 233 239 243 254 261 260 262 256 202 186 205 182 158 162 177 207 223 203 198 196 194 204 206 196 190 195 195 185 181 186 179 164 153 149 149 147 141 138 137 135 133 130 126 123 119 115 114 115 116 117 116 114 115 116 116 115 115
184 184 184 187 188 187 190 191 190 192 193 194 195 196 198 200 204 201 201 206 205 206 215 218 213 208 205 208 216 225 236 250 252 246 240 248 255 178 181 200 192 179 169 171 189 189 187 185 181 185 188 189 190 193 191 184 183 186 179 167 156 153 152 149 145 142 138 136 137 136 132 127 124 121 120 120 122 121 121 121 120 122 122 120 121
185 185 184 187 189 190 193 192 191 193 195 197 195 196 199 200 205 203 197 200 201 201 208 218 226 225 213 207 208 208 217 242 238 227 225 226 244 265 153 177 176 167 184 178 164 168 172 173 173 171 171 179 181 184 189 186 184 186 182 172 163 159 156 151 148 144 141 137 137 139 137 132 129 128 128 129 130 128 127 128 127 128 126 125 126
187 186 185 187 189 191 194 193 192 196 198 198 196 194 197 199 202 204 200 199 202 205 210 215 221 226 224 219 219 218 217 239 243 221 213 216 234 262 348 2 81 129 193 180 147 154 162 165 170 165 165 174 173 180 187 185 185 188 185 178 171 165 159 155 152 149 147 143 140 140 140 140 137 133 133 134 135 135 134 133 133 133 131 132 132
187 186 187 187 188 190 195 194 193 199 201 199 197 194 196 200 199 200 202 202 201 204 209 215 219 220 222 221 222 229 230 240 260 257 222 222 263 297 8 6 30 117 172 163 142 153 159 156 159 158 164 172 172 181 184 183 187 189 186 184 179 168 162 159 157 154 151 148 146 142 138 142 143 141 140 140 140 141 139 138 138 138 137 137 137
189 189 188 187 188 190 195 197 194 198 202 199 197 195 196 198 199 199 199 200 200 203 208 215 219 218 219 221 221 227 230 234 250 261 240 244 269 295 349 335 284 189 174 159 142 138 143 150 155 155 164 170 175 184 183 183 187 186 185 186 180 169 164 163 161 158 155 155 153 147 140 139 142 147 152 149 146 144 143 143 142 142 143 141 141
191 190 189 187 189 192 196 198 195 197 200 200 196 193 194 195 197 199 198 200 202 203 210 215 220 221 219 219 221 225 228 231 238 238 226 236 244 214 302 299 284 281 195 158 148 139 138 154 160 155 159 172 182 184 183 186 185 181 181 182 178 169 165 166 166 162 161 162 162 158 153 146 138 143 155 159 154 147 146 148 146 146 147 146 146
193 190 188 188 190 193 196 197 197 199 199 198 195 191 191 192 194 197 197 200 203 204 210 213 218 223 221 221 223 223 226 227 227 224 212 213 233 227 200 315 306 308 327 134 143 142 139 147 157 156 154 169 182 181 183 187 185 180 179 178 175 169 167 172 172 167 165 170 174 174 171 165 147 139 151 166 165 155 149 150 151 152 150 151 151
193 191 189 189 190 192 195 196 198 202 201 198 195 190 189 190 191 195 196 199 203 204 208 212 217 224 223 223 223 222 224 223 219 217 211 209 216 202 173 101 55 318 348 61 118 135 142 143 148 159 160 166 179 182 184 187 185 182 180 178 175 171 173 176 173 169 169 172 177 179 181 183 168 150 152 167 172 165 156 153 156 158 157 158 157
193 191 190 189 189 190 192 195 199 202 203 199 195 191 189 189 190 194 195 197 202 205 207 211 218 224 224 222 220 219 219 220 222 217 207 205 198 183 164 132 126 149 32 21 84 122 147 153 150 157 165 170 176 180 183 186 186 182 180 181 179 175 179 181 174 171 174 177 179 179 181 185 178 167 161 167 172 169 164 162 164 167 168 165 164
192 191 191 188 187 188 189 195 200 201 200 198 194 191 189 189 190 193 194 196 201 204 205 210 218 222 221 219 217 216 215 217 225 220 206 199 193 181 163 150 156 144 81 112 1 93 136 152 153 156 161 167 172 174 179 185 186 182 180 184 186 182 182 184 178 175 177 181 186 186 183 180 173 171 167 168 171 171 170 167 163 171 176 171 170
194 191 190 187 185 185 188 194 199 198 198 197 194 191 188 188 190 191 192 195 200 202 203 210 218 218 215 215 213 210 212 217 222 217 206 197 190 178 168 158 149 146 129 134 249 98 128 140 147 156 160 159 168 174 177 185 189 183 179 188 195 189 184 188 187 181 183 190 195 194 191 188 175 168 166 166 170 173 174 169 160 169 175 178 184
195 193 189 187 185 185 187 193 196 195 195 196 194 192 188 187 189 190 190 193 197 199 203 211 216 215 212 211 211 209 210 213 212 207 202 196 188 177 174 169 154 158 162 166 198 118 131 141 145 152 158 158 165 176 179 186 190 182 179 192 200 192 187 193 193 190 193 198 203 204 203 202 180 169 170 166 167 174 177 178 182 183 178 184 198
195 195 191 188 187 186 188 191 193 193 193 194 194 192 187 185 187 189 188 192 195 196 203 211 212 213 213 211 210 210 209 208 206 202 198 192 186 180 180 177 165 166 172 195 231 129 126 142 146 150 159 163 165 174 180 187 189 182 184 197 199 193 192 195 197 199 201 202 206 210 211 205 179 174 183 174 168 174 178 181 189 193 192 196 203
203 197 194 192 189 187 188 189 190 192 192 192 193 192 188 184 184 187 189 190 193 195 202 210 210 209 212 213 210 210 209 206 205 202 196 189 185 185 184 180 178 181 179 190 237 235 133 139 146 152 162 167 167 170 182 192 188 183 190 198 194 194 197 197 198 202 205 208 211 210 207 200 183 186 197 185 176 182 187 188 188 188 197 207 209
221 205 197 195 191 187 187 187 187 189 190 191 193 192 189 185 183 185 188 190 193 196 200 209 212 208 208 212 213 210 206 206 207 203 197 190 188 189 186 183 179 180 185 186 222 263 141 142 152 158 162 170 173 172 182 193 189 184 191 194 188 190 195 199 203 205 207 211 211 203 199 197 191 196 201 188 185 195 198 199 198 189 189 196 202
227 221 205 197 194 189 186 186 186 187 189 190 191 192 189 187 185 184 187 191 195 197 201 209 214 208 205 208 212 211 205 203 206 205 199 192 192 193 187 186 187 184 187 188 202 246 180 148 157 162 165 171 174 170 174 185 187 186 190 188 183 187 194 199 206 209 207 208 206 199 197 198 197 199 199 191 195 206 208 208 211 206 200 200 203
217 228 218 201 195 192 187 186 186 187 188 189 190 191 190 188 187 186 188 192 196 199 202 210 215 212 207 207 208 210 205 201 202 203 198 192 193 199 191 189 197 188 182 179 186 217 226 158 153 157 162 164 164 169 175 180 182 183 185 185 182 184 189 193 205 213 209 205 202 197 197 199 198 198 199 200 205 210 213 218 219 217 217 217 218
207 222 228 210 196 194 190 187 188 187 187 189 189 190 190 188 188 188 189 193 197 200 203 210 216 214 211 208 206 208 205 200 200 201 198 192 192 197 191 190 198 180 171 173 180 199 201 160 152 153 159 160 160 168 180 184 183 180 180 183 186 189 188 188 199 213 209 203 200 196 198 200 198 199 202 208 214 216 218 224 222 219 221 223 225
204 212 226 220 202 196 192 188 188 187 186 188 188 189 189 189 189 189 190 194 197 200 204 210 215 214 213 211 208 207 207 203 201 200 197 192 191 194 189 188 195 176 164 172 186 196 180 157 154 157 160 163 166 172 180 185 188 189 185 183 187 194 195 193 198 205 203 202 201 198 201 203 201 202 205 209 217 220 222 225 222 219 222 227 230
205 208 222 223 206 195 194 190 187 187 187 187 187 188 189 189 189 190 191 196 198 200 205 210 213 214 213 213 211 210 210 207 205 203 197 190 189 191 185 186 193 184 171 177 188 199 183 159 157 163 165 166 171 173 174 177 185 195 196 192 193 198 199 198 201 204 199 197 198 198 201 205 205 206 208 212 217 219 221 223 222 219 222 229 231
204 207 223 230 213 196 192 190 188 186 186 187 188 187 187 187 188 190 194 198 198 199 205 209 212 214 212 212 213 212 213 211 207 203 196 191 191 189 184 189 192 186 184 184 187 199 193 164 159 167 170 170 173 171 172 182 191 197 199 197 197 199 194 185 191 204 204 199 198 199 201 204 208 210 212 216 220 222 222 222 222 218 218 224 226
207 206 222 235 222 209 198 187 185 186 185 187 190 188 187 187 187 191 196 200 199 200 205 207 210 214 213 212 212 210 213 213 208 203 195 190 192 187 183 189 189 184 188 192 193 201 198 173 166 173 176 178 182 181 182 190 196 196 197 198 195 192 186 172 171 198 209 205 198 199 205 208 210 215 219 224 229 231 229 226 225 219 211 212 216
216 210 222 229 217 221 220 193 181 184 184 185 189 188 187 187 187 190 195 198 200 201 204 206 209 212 212 211 207 205 209 210 204 201 196 191 190 185 182 187 187 184 189 195 200 207 206 192 179 178 182 184 188 191 190 190 192 193 196 196 192 189 188 185 183 194 208 208 198 195 206 211 212 214 217 222 229 234 234 231 227 221 210 206 209
220 213 221 224 207 214 232 209 183 182 185 186 189 188 187 187 189 192 195 198 198 200 204 207 207 210 210 204 199 198 203 206 201 197 194 191 192 192 193 198 194 190 191 195 201 205 209 209 190 184 191 191 185 189 192 190 190 193 194 191 190 193 195 200 205 202 203 204 197 189 193 201 206 207 205 209 218 225 230 229 225 218 209 205 206
215 212 216 218 201 205 227 216 188 184 186 187 188 187 188 190 189 192 196 199 199 200 206 207 206 210 208 195 187 188 193 198 199 197 194 193 195 197 204 211 204 197 193 195 200 194 194 207 193 190 201 199 187 189 193 192 188 188 188 188 191 196 200 205 213 216 210 202 193 184 175 183 197 201 199 202 208 214 220 222 218 213 209 206 204
206 209 213 211 199 207 221 211 189 186 186 185 187 188 191 193 191 191 193 196 200 202 206 208 209 211 206 194 184 182 185 190 192 194 195 194 195 198 203 206 203 200 198 196 197 190 182 187 182 185 194 194 189 190 192 193 191 188 188 191 194 196 198 203 212 219 213 201 194 184 162 169 192 194 191 196 200 205 212 216 215 213 212 211 206
201 207 213 210 206 216 219 202 186 188 187 186 189 191 194 197 197 196 194 194 199 203 206 209 210 208 206 198 187 181 183 186 187 192 195 194 193 195 191 187 191 198 200 198 197 194 190 189 176 164 159 161 174 182 187 191 192 192 194 196 196 192 185 180 184 191 191 194 196 190 161 159 189 188 182 187 191 197 208 217 223 223 221 218 213
206 206 210 215 217 218 212 194 187 191 190 190 191 190 194 198 199 199 197 194 198 204 207 210 207 205 205 199 187 183 184 183 185 194 198 192 191 189 180 177 185 193 195 197 199 199 195 188 176 162 150 145 157 170 178 184 186 190 191 187 184 178 162 147 140 148 157 176 195 196 172 161 184 187 179 178 181 192 211 222 228 228 225 222 221
209 207 209 219 221 212 201 194 192 191 191 193 194 194 195 198 198 198 198 196 198 204 208 210 206 203 205 201 189 184 185 186 189 196 197 191 187 182 175 175 180 184 186 196 204 203 201 201 193 178 162 153 155 160 166 169 171 175 175 173 173 168 155 144 140 143 149 163 188 200 188 171 183 188 176 169 178 196 215 224 225 228 229 228 229
205 215 218 222 219 204 195 199 199 195 194 194 196 200 201 201 200 199 199 198 199 200 203 207 204 201 205 205 194 185 185 190 194 196 194 188 181 177 176 173 174 177 182 192 200 197 197 203 205 198 187 177 173 170 168 165 162 164 167 171 175 171 160 153 150 144 148 165 186 201 193 172 178 184 168 147 145 171 196 213 214 219 223 224 228
195 216 221 217 209 198 198 204 204 205 202 196 197 202 204 204 204 201 199 200 199 197 199 203 204 204 207 208 200 190 186 190 196 196 191 183 177 181 181 172 172 180 186 192 194 189 187 189 191 191 189 189 189 186 185 182 175 175 176 170 176 178 167 156 151 144 143 174 188 197 189 169 171 178 166 141 112 135 163 161 167 174 172 180 199